SCP
0 0 0 0 0 0 0 0 -0 -0 -0 0 0 -0 0 0 0 -0 0 -0 -0 0 0 0 0 0 0 0 0 0 0 0 0 0 0 0 0 0
0 1 0 0 0 0 -0 -0 0 0 0 0 -0 0 0 0 0 0 0 -0 0 0 0 0 0 0 0 0 0 0 0 0 0 0 0 0 0 0
0 0 0 0 0 0 0 0 0 0 0 0 0 0 0 0 0 0 0 0 0 0 0 0 0 0 0 0 0 0 0 0 0 0 0 0 0 0
0 0 0 0 0 0 0 0 0 0 0 0 0 0 0 0 0 0 -0 0 0 0 0 0 0 0 0 0 0 0 0 0 0 0 0 0 0 0
0 0 0 0 0 0 0 -0 0 0 0 0 0 0 0 0 0 0 0 -0 0 0 0 0 0 0 0 0 0 0 0 0 0 0 0 0 0 0
0 0 0 0 0 0 0 0 0 0 0 0 0 0 0 1 0 0 0 0 0 0 0 0 0 0 0 0 0 0 0 0 0 0 0 0 0 0
0 0 0 0 0 0 0 0 0 0 1 1 1 1 1 0 0 0 1 1 1 1 0 0 0 0 0 0 0 0 0 0 0 0 0 0 0 0
0 0 0 0 0 0 0 0 0 0 1 0 1 1 0 1 1 1 0 1 1 0 1 0 0 0 0 0 0 0 0 0 0 0 0 0 0 0
1 1 0 0 1 0 0 0 0 0 0 1 1 1 1 0 0 0 0 0 0 0 0 0 0 0 0 0 0 0 0 0 0 0 0 0 0 0
1 1 1 0 1 1 1 1 1 0 0 0 0 0 0 0 0 0 0 0 0 0 0 0 0 0 0 0 0 0 0 0 0 0 0 0 0 0
1 1 1 1 0 0 1 1 0 0 0 0 0 0 0 0 0 0 0 0 0 0 0 0 0 0 0 0 0 0 0 0 0 0 0 0 0 0
3 0 0 0 0 0 0 1 1 0 0 0 0 0 0 0 0 0 0 0 0 0 0 0 0 0 0 0 0 0 0 0 0 0 0 0 0 0
1 0 0 0 0 0 0 0 1 0 0 0 0 0 0 0 0 0 0 0 0 0 0 0 0 0 0 0 0 0 -0 0 0 0 0 0 0 0
0 0 0 0 0 0 0 0 0 0 0 0 0 0 0 0 0 0 0 0 0 0 0 0 0 0 0 0 0 0 0 0 -0 -0 0 0 0 0
0 0 0 0 0 0 0 0 0 0 0 0 0 0 0 0 0 0 0 0 0 0 0 0 0 0 0 0 0 0 0 0 0 0 0 0 0 0
0 0 0 0 0 0 0 0 0 0 0 -0 -0 -0 -0 0 0 0 0 0 0 0 0 0 0 0 0 0 0 0 0 0 0 0 0 0 0 0
0 0 0 0 0 0 0 0 0 0 0 0 0 -0 0 0 0 0 0 0 0 0 0 0 0 0 0 0 0 0 0 0 0 0 0 0 0 0
0 0 0 0 0 0 0 0 0 0 0 0 0 0 0 0 0 0 0 0 0 0 0 0 0 0 0 0 0 0 0 0 0 0 -0 0 0 0
0 0 0 0 0 0 -0 0 0 0 0 0 0 0 0 0 0 0 0 0 0 0 0 0 0 0 0 0 0 0 0 0 0 0 0 0 0 0
0 0 -0 -0 -0 0 0 0 0 0 0 0 0 0 0 0 0 0 0 0 0 0 0 0 0 0 0 0 0 0 0 0 0 0 0 0 0 0
-0 -0 -0 0 0 0 0 0 0 0 0 0 0 0 0 0 0 0 0 0 0 0 0 0 0 0 -0 0 0 0 0 0 0 0 0 0 0 0
0 0 0 0 0 0 0 0 0 0 0 0 0 0 0 0 0 0 0 0 0 0 0 0 0 0 0 0 0 0 0 0 0 0 0 0 0 0
0 0 0 0 0 0 0 0 0 0 0 0 0 0 0 0 0 0 0 0 0 0 0 0 0 0 0 0 0 0 0 0 0 0 0 0 0 0
Wind_Speed_500mb
10 15 7 14 14 14 16 17 19 22 21 3 11 8 12 10 25 15 18 17 16 14 13 14 14 14 11 10 10 11 12 13 13 12 12 11 10 11
13 11 14 12 15 14 17 16 16 14 21 18 20 8 12 13 15 13 19 19 14 15 16 17 17 14 10 7 7 10 11 13 15 15 13 12 12 12
16 15 16 16 12 17 21 18 13 15 19 25 25 31 18 18 12 17 18 22 19 16 17 16 16 15 14 12 12 14 15 16 16 16 16 16 15 14
18 17 18 14 17 20 21 24 22 25 25 28 25 23 26 30 11 13 6 10 30 21 18 16 15 15 16 17 17 18 20 19 24 24 20 16 14 13
20 24 20 19 23 21 28 24 21 18 18 21 24 22 20 25 27 29 19 14 24 21 24 18 15 16 17 18 21 24 26 29 28 21 16 14 11 9
24 26 25 24 25 25 30 26 26 27 22 24 22 25 30 22 20 20 21 9 16 17 20 23 20 22 20 22 26 27 28 29 27 26 17 7 6 12
26 25 26 31 32 37 32 25 28 22 24 25 23 21 21 22 20 16 18 21 15 18 21 22 19 20 17 25 27 28 27 29 25 21 26 20 16 23
29 27 28 34 39 33 28 29 32 29 22 17 20 21 20 15 13 11 17 15 11 13 12 8 10 16 8 27 35 34 29 23 27 23 16 10 19 18
32 31 34 29 36 38 32 32 31 29 26 17 13 19 15 18 18 17 15 16 15 7 11 17 24 29 30 31 29 19 17 18 17 5 6 16 12 6
36 32 36 34 35 30 31 26 26 28 27 26 26 31 26 23 18 16 17 16 12 11 8 11 12 14 17 21 20 16 14 9 2 8 13 10 8 5
40 36 43 31 38 31 31 26 20 30 29 32 37 30 23 16 10 3 5 8 6 9 10 9 12 14 18 17 18 16 14 7 6 8 9 9 9 7
48 51 42 44 41 34 32 30 27 36 35 23 23 22 16 11 6 5 5 1 7 6 14 7 10 9 16 13 22 21 25 12 5 4 7 11 10 11
54 50 48 42 40 35 39 36 29 33 23 22 16 9 6 5 4 6 5 3 8 3 10 2 7 11 13 11 11 21 25 26 14 6 9 8 9 7
50 46 42 35 34 31 20 19 21 21 12 10 7 4 3 3 6 5 4 4 2 8 6 1 6 11 9 11 8 7 15 15 17 15 14 12 18 16
39 34 31 24 23 21 19 17 16 15 14 10 8 4 4 10 14 19 17 20 15 18 20 10 6 4 9 9 10 9 13 8 3 14 13 16 19 19
34 29 27 25 24 27 30 27 21 20 19 18 19 17 13 8 5 6 4 8 10 13 23 23 15 8 6 6 9 9 9 9 9 3 7 20 29 28
38 36 34 33 35 33 31 34 29 26 21 15 15 14 10 4 3 0 1 4 5 4 7 16 26 19 18 13 11 11 12 12 9 18 23 16 17 7
47 53 51 43 34 37 29 27 23 19 19 15 11 11 8 9 5 6 5 4 3 4 6 10 13 12 8 13 8 10 11 10 12 19 13 15 10 15
49 45 42 37 32 25 20 20 17 14 16 13 13 13 13 3 7 4 2 2 2 3 6 10 11 12 13 10 4 14 17 7 14 15 9 7 14 3
40 36 31 29 29 28 26 17 14 13 12 10 12 9 6 5 4 5 4 4 3 5 4 5 8 8 8 9 10 7 15 11 12 17 20 19 22 21
36 34 29 28 24 21 19 17 15 15 14 9 6 8 10 8 8 6 9 15 11 6 5 6 14 16 10 15 11 8 3 20 21 17 19 19 18 17
30 32 30 28 26 23 21 19 17 15 13 11 9 8 7 7 6 6 4 4 6 6 7 6 12 12 9 11 10 11 12 15 23 21 21 21 18 23
27 28 27 26 24 20 18 16 13 10 9 8 7 4 6 4 6 5 4 4 6 5 9 6 10 9 5 7 8 12 14 15 21 22 28 25 28 27
Wind_Direction_500mb
270 292 308 300 309 309 310 310 315 315 309 290 325 273 358 321 293 289 309 318 324 320 330 338 336 348 359 15 22 17 9 1 353 346 335 326 320 316
263 222 286 288 295 301 294 300 301 310 308 309 334 325 300 305 295 309 275 302 308 314 318 321 325 324 324 327 337 341 345 349 346 342 339 330 322 321
253 268 280 288 283 288 292 295 299 294 281 296 325 326 317 321 314 300 336 339 329 316 315 313 309 303 300 296 304 313 319 327 328 332 328 326 326 327
250 250 267 283 287 298 289 281 275 280 276 286 292 299 314 303 278 301 276 275 278 290 303 303 302 294 286 280 288 298 302 308 313 313 312 312 310 314
241 250 259 263 276 279 284 274 280 274 270 283 289 287 291 314 300 305 307 233 261 300 313 295 294 290 285 279 283 295 297 306 307 301 301 301 305 321
244 259 265 267 273 273 280 266 268 272 272 274 277 277 287 299 304 298 299 263 276 283 295 314 322 296 285 283 280 285 292 300 299 292 281 266 320 322
239 251 258 260 257 262 270 271 264 278 270 276 279 292 308 311 306 303 295 292 274 251 282 300 309 315 309 301 288 287 289 293 295 284 299 293 295 304
248 254 260 270 284 276 267 271 269 275 273 269 283 299 316 285 284 279 303 302 293 283 265 301 157 180 227 280 306 305 311 321 309 300 307 281 305 308
242 250 257 255 256 267 271 272 263 257 260 270 294 283 281 269 280 283 276 278 295 323 310 273 254 279 282 301 314 322 323 325 310 287 286 289 297 272
244 246 262 257 264 266 270 258 252 250 255 266 283 287 279 280 285 298 306 305 298 321 325 284 290 296 308 316 319 319 321 310 268 276 270 264 257 249
254 246 247 252 257 265 245 249 252 264 251 272 286 272 273 271 286 294 284 314 348 292 340 336 341 338 349 344 356 341 339 326 265 279 248 256 245 250
236 251 251 256 264 263 234 215 242 260 282 274 255 250 250 261 259 222 237 256 321 318 336 29 326 332 327 319 332 3 0 322 307 257 269 248 245 266
240 245 252 254 253 247 231 249 248 250 244 244 234 232 242 274 292 326 321 292 145 290 324 40 338 326 301 313 233 324 356 357 347 319 313 292 267 280
243 251 251 239 239 244 217 214 229 228 230 208 185 209 166 14 5 6 357 333 241 247 316 90 22 325 348 327 334 284 302 332 355 8 288 303 322 306
238 232 232 228 214 202 191 191 181 150 142 136 118 123 109 63 42 25 21 9 11 7 357 347 344 33 356 344 329 311 320 278 336 329 305 285 299 304
217 208 198 193 172 159 143 129 131 115 96 83 76 59 66 79 103 101 20 345 296 297 339 351 5 34 7 348 347 344 356 340 12 330 330 314 300 279
200 188 171 141 129 116 112 115 111 103 114 127 105 89 99 81 279 334 334 322 295 300 337 1 349 357 353 21 358 358 339 340 323 316 326 318 320 244
160 138 129 122 120 114 116 108 111 120 124 127 143 162 175 204 148 17 31 341 327 341 332 338 339 335 254 290 297 358 336 331 324 325 325 327 331 318
118 117 114 119 126 123 125 140 157 141 152 163 165 170 142 342 74 42 50 351 3 346 340 347 358 350 336 3 2 356 0 333 335 340 5 7 26 19
127 125 130 132 137 155 161 147 153 153 151 130 115 127 112 112 76 60 40 34 14 355 0 353 349 341 5 340 340 356 357 40 4 345 347 335 336 315
121 114 133 149 148 144 145 140 137 135 129 128 118 96 86 86 74 73 18 43 79 32 15 10 349 26 45 336 279 344 359 6 2 356 338 328 326 331
140 141 150 145 138 132 129 123 117 105 104 98 104 91 90 104 81 67 68 59 34 33 6 351 359 2 340 360 16 16 1 342 348 348 342 348 331 314
137 134 136 134 131 127 124 123 120 118 119 119 107 102 93 62 74 55 51 30 10 18 2 2 342 328 336 22 335 337 346 345 331 341 328 328 349 345
Wind_Speed_850mb
10 15 7 14 14 14 16 17 19 22 21 3 11 8 12 10 25 15 18 17 16 14 13 14 14 14 11 10 10 11 12 13 13 12 12 11 10 11
13 11 14 12 15 14 17 16 16 14 21 18 20 8 12 13 15 13 19 19 14 15 16 17 17 14 10 7 7 10 11 13 15 15 13 12 12 12
16 15 16 16 12 17 21 18 13 15 19 25 25 31 18 18 12 17 18 22 19 16 17 16 16 15 14 12 12 14 15 16 16 16 16 16 15 14
18 17 18 14 17 20 21 24 22 25 25 28 25 23 26 30 11 13 6 10 30 21 18 16 15 15 16 17 17 18 20 19 24 24 20 16 14 13
20 24 20 19 23 21 28 24 21 18 18 21 24 22 20 25 27 29 19 14 24 21 24 18 15 16 17 18 21 24 26 29 28 21 16 14 11 9
24 26 25 24 25 25 30 26 26 27 22 24 22 25 30 22 20 20 21 9 16 17 20 23 20 22 20 22 26 27 28 29 27 26 17 7 6 12
26 25 26 31 32 37 32 25 28 22 24 25 23 21 21 22 20 16 18 21 15 18 21 22 19 20 17 25 27 28 27 29 25 21 26 20 16 23
29 27 28 34 39 33 28 29 32 29 22 17 20 21 20 15 13 11 17 15 11 13 12 8 10 16 8 27 35 34 29 23 27 23 16 10 19 18
32 31 34 29 36 38 32 32 31 29 26 17 13 19 15 18 18 17 15 16 15 7 11 17 24 29 30 31 29 19 17 18 17 5 6 16 12 6
36 32 36 34 35 30 31 26 26 28 27 26 26 31 26 23 18 16 17 16 12 11 8 11 12 14 17 21 20 16 14 9 2 8 13 10 8 5
40 36 43 31 38 31 31 26 20 30 29 32 37 30 23 16 10 3 5 8 6 9 10 9 12 14 18 17 18 16 14 7 6 8 9 9 9 7
48 51 42 44 41 34 32 30 27 36 35 23 23 22 16 11 6 5 5 1 7 6 14 7 10 9 16 13 22 21 25 12 5 4 7 11 10 11
54 50 48 42 40 35 39 36 29 33 23 22 16 9 6 5 4 6 5 3 8 3 10 2 7 11 13 11 11 21 25 26 14 6 9 8 9 7
50 46 42 35 34 31 20 19 21 21 12 10 7 4 3 3 6 5 4 4 2 8 6 1 6 11 9 11 8 7 15 15 17 15 14 12 18 16
39 34 31 24 23 21 19 17 16 15 14 10 8 4 4 10 14 19 17 20 15 18 20 10 6 4 9 9 10 9 13 8 3 14 13 16 19 19
34 29 27 25 24 27 30 27 21 20 19 18 19 17 13 8 5 6 4 8 10 13 23 23 15 8 6 6 9 9 9 9 9 3 7 20 29 28
38 36 34 33 35 33 31 34 29 26 21 15 15 14 10 4 3 0 1 4 5 4 7 16 26 19 18 13 11 11 12 12 9 18 23 16 17 7
47 53 51 43 34 37 29 27 23 19 19 15 11 11 8 9 5 6 5 4 3 4 6 10 13 12 8 13 8 10 11 10 12 19 13 15 10 15
49 45 42 37 32 25 20 20 17 14 16 13 13 13 13 3 7 4 2 2 2 3 6 10 11 12 13 10 4 14 17 7 14 15 9 7 14 3
40 36 31 29 29 28 26 17 14 13 12 10 12 9 6 5 4 5 4 4 3 5 4 5 8 8 8 9 10 7 15 11 12 17 20 19 22 21
36 34 29 28 24 21 19 17 15 15 14 9 6 8 10 8 8 6 9 15 11 6 5 6 14 16 10 15 11 8 3 20 21 17 19 19 18 17
30 32 30 28 26 23 21 19 17 15 13 11 9 8 7 7 6 6 4 4 6 6 7 6 12 12 9 11 10 11 12 15 23 21 21 21 18 23
27 28 27 26 24 20 18 16 13 10 9 8 7 4 6 4 6 5 4 4 6 5 9 6 10 9 5 7 8 12 14 15 21 22 28 25 28 27
Wind_Direction_850mb
270 292 308 300 309 309 310 310 315 315 309 290 325 273 358 321 293 289 309 318 324 320 330 338 336 348 359 15 22 17 9 1 353 346 335 326 320 316
263 222 286 288 295 301 294 300 301 310 308 309 334 325 300 305 295 309 275 302 308 314 318 321 325 324 324 327 337 341 345 349 346 342 339 330 322 321
253 268 280 288 283 288 292 295 299 294 281 296 325 326 317 321 314 300 336 339 329 316 315 313 309 303 300 296 304 313 319 327 328 332 328 326 326 327
250 250 267 283 287 298 289 281 275 280 276 286 292 299 314 303 278 301 276 275 278 290 303 303 302 294 286 280 288 298 302 308 313 313 312 312 310 314
241 250 259 263 276 279 284 274 280 274 270 283 289 287 291 314 300 305 307 233 261 300 313 295 294 290 285 279 283 295 297 306 307 301 301 301 305 321
244 259 265 267 273 273 280 266 268 272 272 274 277 277 287 299 304 298 299 263 276 283 295 314 322 296 285 283 280 285 292 300 299 292 281 266 320 322
239 251 258 260 257 262 270 271 264 278 270 276 279 292 308 311 306 303 295 292 274 251 282 300 309 315 309 301 288 287 289 293 295 284 299 293 295 304
248 254 260 270 284 276 267 271 269 275 273 269 283 299 316 285 284 279 303 302 293 283 265 301 157 180 227 280 306 305 311 321 309 300 307 281 305 308
242 250 257 255 256 267 271 272 263 257 260 270 294 283 281 269 280 283 276 278 295 323 310 273 254 279 282 301 314 322 323 325 310 287 286 289 297 272
244 246 262 257 264 266 270 258 252 250 255 266 283 287 279 280 285 298 306 305 298 321 325 284 290 296 308 316 319 319 321 310 268 276 270 264 257 249
254 246 247 252 257 265 245 249 252 264 251 272 286 272 273 271 286 294 284 314 348 292 340 336 341 338 349 344 356 341 339 326 265 279 248 256 245 250
236 251 251 256 264 263 234 215 242 260 282 274 255 250 250 261 259 222 237 256 321 318 336 29 326 332 327 319 332 3 0 322 307 257 269 248 245 266
240 245 252 254 253 247 231 249 248 250 244 244 234 232 242 274 292 326 321 292 145 290 324 40 338 326 301 313 233 324 356 357 347 319 313 292 267 280
243 251 251 239 239 244 217 214 229 228 230 208 185 209 166 14 5 6 357 333 241 247 316 90 22 325 348 327 334 284 302 332 355 8 288 303 322 306
238 232 232 228 214 202 191 191 181 150 142 136 118 123 109 63 42 25 21 9 11 7 357 347 344 33 356 344 329 311 320 278 336 329 305 285 299 304
217 208 198 193 172 159 143 129 131 115 96 83 76 59 66 79 103 101 20 345 296 297 339 351 5 34 7 348 347 344 356 340 12 330 330 314 300 279
200 188 171 141 129 116 112 115 111 103 114 127 105 89 99 81 279 334 334 322 295 300 337 1 349 357 353 21 358 358 339 340 323 316 326 318 320 244
160 138 129 122 120 114 116 108 111 120 124 127 143 162 175 204 148 17 31 341 327 341 332 338 339 335 254 290 297 358 336 331 324 325 325 327 331 318
118 117 114 119 126 123 125 140 157 141 152 163 165 170 142 342 74 42 50 351 3 346 340 347 358 350 336 3 2 356 0 333 335 340 5 7 26 19
127 125 130 132 137 155 161 147 153 153 151 130 115 127 112 112 76 60 40 34 14 355 0 353 349 341 5 340 340 356 357 40 4 345 347 335 336 315
121 114 133 149 148 144 145 140 137 135 129 128 118 96 86 86 74 73 18 43 79 32 15 10 349 26 45 336 279 344 359 6 2 356 338 328 326 331
140 141 150 145 138 132 129 123 117 105 104 98 104 91 90 104 81 67 68 59 34 33 6 351 359 2 340 360 16 16 1 342 348 348 342 348 331 314
137 134 136 134 131 127 124 123 120 118 119 119 107 102 93 62 74 55 51 30 10 18 2 2 342 328 336 22 335 337 346 345 331 341 328 328 349 345